Location: Unspecified
(42.3650°N, 71.1030°W)
Time: 08:37:24
(UTC+00:00)

A-11 Canister half - Pass Details

Date: 25 June 2024
Orbit: 1524 x 1684 km, 47.3° (Epoch: 18 July)

Event Time Altitude Azimuth Distance (km) Brightness Sun altitude
Rises 01:08:00 0° 289° (WNW) 4,677 13.0 -7.1°
Reaches altitude 10° 01:12:22 10° 271° (W) 3,699 11.8 -7.7°
Maximum altitude 01:17:49 17° 235° (SW) 3,172 10.8 -8.5°
Drops below altitude 10° 01:23:20 10° 198° (SSW) 3,738 10.8 -9.2°
Sets 01:27:50 0° 180° (S) 4,746 11.1 -9.8°
